Tracking 28790 objects as of 18-Apr-2024
HD Live streaming from Space Station
objects crossing your sky now

FENGYUN 1C DEB

Track FENGYUN 1C DEB now!
10-day predictions


NORAD ID: 30441
Int'l Code: 1999-025AFC
Perigee: 846.2 km
Apogee: 1,121.4 km
Inclination: 99.1 °
Period: 104.6 minutes
Semi major axis: 7354 km
RCS: 0.038 m2 (small)
Launch date: May 10, 1999
Source: People's Republic of China (PRC)
Launch site: Taiyaun Space Center, China (TSC)

Note: This is SATELLITE DEBRIS
Your satellite tracking list
Your tracking list is empty




NASA's NSSDC Master Catalog

Two Line Element Set (TLE):
1 30441U 99025AFC 24109.51887952  .00001188  00000-0  11064-2 0  9990
2 30441  99.1259 216.1789 0187058  56.4139 305.4714 13.76404602865769
Source of the keplerian elements: AFSPC